[[{"header":{"parameterUnit":"m.s-1","parameterCategory":1,"la1":30.2991,"la2":30.254,"lo1":-89.0895,"lo2":-89.0444,"dy":0.0017,"dx":0.0017,"nx":28,"ny":28,"refTime":"2025-01-18T09:00:00:Z","depth":0,"parameterNumber":2,"parameterNumberName":"U-component_of_WINDS"},"data":[0,0,0,0,0,0,0,0,0,0,0,0,0,0,0,0,0,0,0,0,0,0,0,0,0,0,0,0,0,0,0,0,0,0,0,0,0,0,0,0,0,0,0,0,0,0,0,0,0,0,0,0,0,0,0,0,0,0,1.564,1.564,0,1.5665,1.5665,1.5665,1.5654,1.5653,1.5652,1.5652,1.5676,1.5678,1.5679,0,0,0,0,0,0,0,0,0,0,0,0,0,1.5585,1.5586,1.564,1.564,1.5641,1.5665,1.5665,1.5665,1.5654,1.5653,1.5652,1.5652,1.5676,1.5677,1.5679,0,0,0,0,0,0,0,0,0,0,0,0,0,1.5609,1.5586,1.564,1.5638,1.5638,1.5665,1.5665,1.5665,1.5654,1.5653,1.5652,1.5651,1.5675,1.5677,1.5679,1.5709,0,0,1.5685,1.5685,0,0,0,0,0,0,0,0,1.5608,1.5611,1.5638,1.5638,1.5638,1.5655,1.5654,1.568,1.5654,1.5648,1.5652,1.5651,1.567,1.5672,1.5679,1.571,1.5711,1.5685,1.5686,1.5687,1.5687,0,0,0,0,0,0,0,1.5606,1.561,1.565,1.5638,1.5639,1.5636,1.5639,1.5659,1.5664,1.5648,1.5648,1.5651,1.567,1.5677,1.5679,1.5712,1.5685,1.5686,1.5688,1.5688,1.5772,1.5773,0,0,0,0,0,0,1.5604,1.5609,1.5649,1.5651,1.562,1.5638,1.5641,1.5651,1.5664,1.5665,1.5651,1.565,1.5674,1.5677,1.568,1.5718,1.5687,1.5688,1.569,1.5771,1.5772,1.5774,0,0,0,0,0,0,1.5603,1.5608,1.5648,1.5629,1.5634,1.564,1.5651,1.5652,1.5659,1.5666,1.5667,1.5658,1.5674,1.5678,1.5703,1.5719,1.5689,1.5691,1.577,1.5771,1.5773,1.5793,0,0,0,0,0,0,1.5602,1.5608,1.5619,1.563,1.5635,1.567,1.5652,1.5653,1.5662,1.566,1.5672,1.5673,1.5673,1.57,1.5705,1.5721,1.5692,1.5768,1.577,1.5772,1.5791,1.5796,1.5799,0,0,0,0,0,1.56,1.5622,1.5619,1.5624,1.5649,1.5671,1.5674,1.5674,1.5663,1.5675,1.568,1.5673,1.5716,1.5703,1.5708,1.5725,1.5767,1.577,1.5772,1.579,1.5795,1.5799,0,0,0,0,0,0,1.5612,1.5624,1.562,1.5647,1.5658,1.5669,1.5683,1.5679,1.5693,1.569,1.569,1.5692,1.5719,1.5724,1.5709,1.5756,1.574,1.5744,1.5752,1.5757,1.5761,1.5759,1.5694,0,0,0,0,0,1.5618,1.5635,1.5644,1.5667,1.5673,1.5677,1.5686,1.5686,1.5697,1.5701,1.5708,1.5719,1.5736,1.5746,1.5761,1.5792,1.5796,1.5807,1.581,1.5814,1.5817,1.5836,1.5842,1.5782,1.5782,1.5782,0,0,1.563,1.5639,1.5649,1.567,1.5678,1.5696,1.5681,1.57,1.5713,1.5704,1.5729,1.5734,1.5747,1.5776,1.5789,1.5781,1.5835,1.5817,1.5819,1.5821,1.5839,1.5845,1.585,1.5784,1.5783,1.5783,0,0,1.5662,1.567,1.5691,1.57,1.5714,1.5717,1.5722,1.5734,1.5738,1.5763,1.5757,1.5773,1.5801,1.5811,1.582,1.5859,1.5853,1.5864,1.5884,1.5903,1.5908,1.5912,1.5928,1.5933,1.5867,1.5867,1.5867,0,1.5676,1.5702,1.5702,1.5723,1.5733,1.5726,1.5749,1.5758,1.5775,1.5783,1.5774,1.5811,1.5818,1.5851,1.5861,1.5867,1.5874,1.5862,1.5907,1.5911,1.5915,1.5931,1.5936,1.5868,1.5868,1.5868,1.5868,0,1.572,1.5738,1.5754,1.5773,1.5784,1.5805,1.581,1.5822,1.5821,1.5825,1.5852,1.5862,1.588,1.5888,1.5886,1.5921,1.5916,1.5907,1.5891,1.5922,1.5937,1.5942,1.587,1.587,1.5869,1.5869,0,0,1.5759,1.5779,1.5785,1.5795,1.581,1.5825,1.5847,1.5865,1.5877,1.589,1.5909,1.5934,1.5927,1.5937,1.5937,1.5953,1.5986,1.5943,1.5943,1.5952,1.6027,1.6035,1.6041,1.5983,1.5984,1.5985,1.6027,0,1.5793,1.5832,1.5834,1.5869,1.5887,1.5883,1.5902,1.5914,1.592,1.5937,1.5943,1.5961,1.5949,1.5956,1.5972,1.5979,1.6002,1.5975,1.6002,1.6003,1.6,1.6048,1.6056,1.6095,1.6032,1.6033,1.6034,0,1.5838,1.5854,1.5891,1.5907,1.5915,1.5932,1.5951,1.5967,1.5982,1.5985,1.5997,1.5995,1.6019,1.6003,1.6036,1.6019,1.603,1.6035,1.6036,1.604,1.6021,1.6054,1.6107,1.6114,1.6042,1.6042,1.6041,0,1.5865,1.5896,1.5923,1.5931,1.5949,1.5962,1.597,1.5984,1.5996,1.6013,1.6021,1.604,1.605,1.6065,1.6069,1.6057,1.6104,1.6087,1.6108,1.6108,1.6119,1.6118,1.6176,1.6124,1.6124,1.6124,1.6123,0,1.5904,1.5927,1.5936,1.5953,1.598,1.5982,1.6009,1.6017,1.6029,1.6048,1.6045,1.6063,1.6067,1.6086,1.6089,1.6118,1.6122,1.6126,1.6127,1.6127,1.6127,1.6135,1.6132,1.6125,1.6125,1.6124,1.6124,0,1.5939,1.5945,1.5975,1.5991,1.5995,1.6015,1.6028,1.6045,1.6051,1.6075,1.6081,1.609,1.6113,1.6119,1.6145,1.6147,1.6182,1.6179,1.6177,1.6177,1.6199,1.6198,1.6265,1.6274,1.6215,1.6215,1.6216,0,1.5963,1.5982,1.6,1.6013,1.6023,1.6043,1.6056,1.606,1.6074,1.6093,1.6108,1.6131,1.6149,1.6186,1.6195,1.6216,1.6215,1.6237,1.6218,1.6218,1.6217,1.6217,1.6219,1.6241,1.6241,1.6242,1.6242,0,1.6007,1.601,1.6029,1.605,1.6066,1.6083,1.6099,1.6109,1.6116,1.6132,1.6155,1.617,1.6198,1.6221,1.6243,1.6252,1.6249,1.6248,1.6255,1.6255,1.6254,1.6257,1.6189,1.6247,1.6246,1.6246,1.6246,1.6245,1.6039,1.6056,1.6073,1.6095,1.6108,1.6123,1.6141,1.615,1.6169,1.6193,1.6195,1.6221,1.6237,1.6266,1.6277,1.6298,1.6292,1.63,1.6303,1.6305,1.6308,1.625,1.6302,1.6302,1.6302,1.6302,1.6302,0,1.6084,1.6095,1.6116,1.6139,1.6157,1.6153,1.6171,1.6187,1.621,1.6226,1.6245,1.6273,1.6296,1.6308,1.6331,1.6346,1.6346,1.6352,1.6352,1.6355,1.6312,1.6305,1.6353,1.6353,1.6353,1.6353,1.6353,1.6353,1.611,1.614,1.6145,1.6182,1.6193,1.6219,1.623,1.6245,1.6258,1.6291,1.631,1.6318,1.6333,1.6358,1.638,1.6383,1.6392,1.64,1.6402,1.6362,1.6357,1.6352,1.6346,1.6402,1.6402,1.6444,1.6444,1.6444]},{"header":{"parameterUnit":"m.s-1","parameterCategory":1,"la1":30.2991,"la2":30.254,"lo1":-89.0895,"lo2":-89.0444,"dy":0.0017,"dx":0.0017,"nx":28,"ny":28,"refTime":"2025-01-18T09:00:00:Z","depth":0,"parameterNumber":3,"parameterNumberName":"V-component_of_WINDS"},"data":[0,0,0,0,0,0,0,0,0,0,0,0,0,0,0,0,0,0,0,0,0,0,0,0,0,0,0,0,0,0,0,0,0,0,0,0,0,0,0,0,0,0,0,0,0,0,0,0,0,0,0,0,0,0,0,0,0,0,1.2613,1.2614,0,1.2727,1.2728,1.273,1.2754,1.2753,1.2752,1.2751,1.2868,1.2872,1.2876,0,0,0,0,0,0,0,0,0,0,0,0,0,1.2414,1.2418,1.2612,1.2614,1.2615,1.2727,1.2728,1.273,1.2754,1.2753,1.2752,1.2751,1.2867,1.2871,1.2876,0,0,0,0,0,0,0,0,0,0,0,0,0,1.2512,1.2419,1.2612,1.2641,1.2644,1.2727,1.2728,1.273,1.2754,1.2753,1.2751,1.275,1.2865,1.2871,1.2877,1.2938,0,0,1.2894,1.2897,0,0,0,0,0,0,0,0,1.2506,1.2519,1.2635,1.2639,1.2643,1.2725,1.2701,1.28,1.2754,1.2712,1.2751,1.275,1.2821,1.2831,1.2855,1.2944,1.2949,1.2895,1.2899,1.2901,1.2903,0,0,0,0,0,0,0,1.2499,1.2514,1.2658,1.2637,1.2642,1.2648,1.266,1.272,1.2773,1.2716,1.2718,1.2731,1.2823,1.2849,1.2858,1.2951,1.2895,1.29,1.2904,1.2906,1.3097,1.3098,0,0,0,0,0,0,1.2488,1.2508,1.2654,1.2661,1.257,1.2652,1.2666,1.27,1.2772,1.2782,1.2732,1.2732,1.284,1.2851,1.2862,1.294,1.2901,1.2907,1.291,1.3095,1.3097,1.3099,0,0,0,0,0,0,1.2483,1.25,1.265,1.2585,1.2605,1.2657,1.2695,1.2703,1.2729,1.2784,1.2794,1.2749,1.2839,1.2854,1.292,1.2945,1.2909,1.2914,1.3094,1.3096,1.3098,1.3097,0,0,0,0,0,0,1.2477,1.2499,1.2523,1.2586,1.2608,1.2705,1.2696,1.2706,1.2739,1.274,1.2803,1.2812,1.2839,1.2911,1.2925,1.2952,1.2919,1.3092,1.3095,1.3097,1.3095,1.3099,1.3102,0,0,0,0,0,1.247,1.2517,1.2524,1.2541,1.2639,1.2707,1.2719,1.275,1.2741,1.2766,1.2801,1.281,1.2939,1.2917,1.2934,1.2963,1.309,1.3094,1.3097,1.3093,1.3098,1.3102,0,0,0,0,0,0,1.2456,1.2526,1.2534,1.2603,1.2649,1.271,1.2743,1.2754,1.2803,1.2802,1.2838,1.2852,1.2916,1.2945,1.292,1.3027,1.3014,1.3021,1.3005,1.301,1.3014,1.3006,1.2924,0,0,0,0,0,1.246,1.2509,1.2568,1.2623,1.2646,1.269,1.272,1.274,1.2789,1.2808,1.2849,1.2896,1.2947,1.298,1.303,1.3098,1.3113,1.3127,1.313,1.3133,1.3139,1.3179,1.3186,1.311,1.311,1.311,0,0,1.2471,1.2515,1.2544,1.2621,1.2659,1.2709,1.2706,1.2759,1.2797,1.2816,1.2882,1.2913,1.2967,1.3035,1.3067,1.3062,1.3163,1.3137,1.3139,1.3144,1.3183,1.319,1.3197,1.3113,1.3112,1.3112,0,0,1.2516,1.2554,1.2605,1.2643,1.27,1.2729,1.2741,1.2802,1.2824,1.2889,1.2905,1.295,1.3037,1.3076,1.3107,1.3167,1.3177,1.3182,1.3202,1.324,1.3246,1.3251,1.3274,1.3282,1.3187,1.3188,1.3188,0,1.2522,1.2598,1.2629,1.2682,1.2716,1.2736,1.2788,1.2823,1.2894,1.2917,1.291,1.3021,1.3059,1.3136,1.3151,1.3175,1.319,1.3176,1.3243,1.3248,1.3254,1.3276,1.3285,1.3188,1.3188,1.3188,1.3188,0,1.2604,1.2656,1.269,1.2758,1.2796,1.2848,1.2887,1.2921,1.2937,1.2967,1.3034,1.308,1.3141,1.316,1.3176,1.3241,1.3236,1.3235,1.3224,1.3261,1.3283,1.3291,1.3188,1.3188,1.3188,1.3188,0,0,1.2644,1.2729,1.2741,1.2773,1.2837,1.2878,1.2931,1.2991,1.302,1.3067,1.3113,1.3186,1.3187,1.3222,1.3242,1.3275,1.3322,1.3271,1.3273,1.328,1.3397,1.3398,1.3408,1.3328,1.333,1.3331,1.3393,0,1.2698,1.2794,1.2823,1.2904,1.2953,1.2973,1.3019,1.3063,1.3092,1.3139,1.3171,1.3223,1.3218,1.324,1.3273,1.3309,1.3346,1.3305,1.3372,1.3374,1.336,1.3419,1.342,1.3477,1.3401,1.3403,1.3404,0,1.2775,1.2824,1.291,1.2969,1.2991,1.3032,1.3089,1.3132,1.3183,1.3202,1.3242,1.3259,1.3316,1.3299,1.3377,1.3349,1.3378,1.3399,1.3402,1.3411,1.3393,1.3431,1.3495,1.3504,1.3417,1.3416,1.3415,0,1.2798,1.2886,1.2949,1.2975,1.3045,1.3073,1.3104,1.3153,1.3187,1.3237,1.326,1.3315,1.3346,1.3388,1.342,1.3405,1.3496,1.3482,1.3515,1.3514,1.3535,1.3533,1.3606,1.355,1.355,1.3549,1.3549,0,1.2856,1.2908,1.296,1.2999,1.3057,1.3091,1.3148,1.3179,1.3223,1.3269,1.3288,1.333,1.3369,1.3417,1.3442,1.3504,1.3517,1.3534,1.3541,1.3534,1.3532,1.3555,1.3553,1.3552,1.3551,1.3551,1.355,0,1.2893,1.293,1.3,1.306,1.3077,1.3117,1.3169,1.3208,1.3237,1.3294,1.331,1.3356,1.3413,1.3449,1.3521,1.3538,1.3607,1.3611,1.359,1.3593,1.3624,1.3622,1.3716,1.3731,1.3663,1.3663,1.3664,0,1.2929,1.297,1.3035,1.3067,1.3097,1.3148,1.3184,1.3217,1.3253,1.3314,1.3346,1.3404,1.3452,1.3542,1.3582,1.3638,1.3645,1.3674,1.3653,1.3645,1.3648,1.3646,1.365,1.3678,1.3678,1.3679,1.3679,0,1.299,1.3006,1.3056,1.3113,1.3154,1.32,1.3246,1.3271,1.3313,1.3352,1.341,1.3448,1.3522,1.358,1.3638,1.367,1.3682,1.3685,1.3696,1.369,1.3677,1.3687,1.3601,1.3683,1.3683,1.3683,1.3682,1.3682,1.3029,1.3066,1.3118,1.3173,1.3211,1.3254,1.3294,1.3328,1.3378,1.3441,1.3458,1.3519,1.357,1.365,1.3682,1.3731,1.3728,1.3742,1.3747,1.3751,1.3752,1.3668,1.3742,1.3742,1.3742,1.3742,1.3741,0,1.3092,1.3126,1.3177,1.3241,1.3285,1.3292,1.3343,1.3379,1.3433,1.3479,1.3526,1.3594,1.365,1.3695,1.3753,1.3783,1.379,1.3797,1.3797,1.3804,1.3751,1.3737,1.3791,1.3791,1.3791,1.3791,1.3791,1.3791,1.313,1.3195,1.3217,1.33,1.3334,1.3395,1.3424,1.3464,1.3501,1.3576,1.3623,1.3651,1.3697,1.3758,1.381,1.3822,1.3843,1.385,1.3862,1.3813,1.3807,1.3802,1.3789,1.3853,1.3853,1.3912,1.3912,1.3913]}]]